EW6790 Weather Reports


time (UTC)temp
F
wind
direction
speed
knots
gust
knots
rain 1hr
in
rain 24hr
in
rain mn
in
humidity
%
barometer
mb
20260904174616 89 117 0.0 4.3 0.00 0.00 0.00 71 1008.9
20260904173051 88 112 2.6 5.2 0.00 0.00 0.00 72 1009.0
20260904171534 87 70 2.6 4.3 0.00 0.00 0.00 72 1009.0
20260904170044 87 67 1.7 4.3 0.00 0.00 0.00 72 1009.0
20260904164513 87 53 1.7 3.5 0.00 0.00 0.00 71 1008.9
20260904163010 86 118 0.9 2.6 0.00 0.00 0.00 74 1008.9
20260904161604 85 252 0.0 2.6 0.00 0.00 0.00 75 1008.8
20260904160052 85 231 0.0 2.6 0.00 0.00 0.00 76 1008.7
20260904154534 84 273 1.7 3.5 0.00 0.00 0.00 76 1008.8
20260904153034 83 275 1.7 5.2 0.00 0.00 0.00 77 1008.8
20260904151516 82 267 1.7 6.1 0.00 0.00 0.00 80 1008.8
20260904150017 81 262 1.7 6.1 0.00 0.00 0.00 81 1008.9
20260904144558 81 276 1.7 5.2 0.00 0.00 0.00 81 1008.9
20260904143057 81 253 1.7 6.1 0.00 0.00 0.00 81 1008.9
20260904141539 80 248 3.5 7.0 0.00 0.00 0.00 82 1008.9
20260904140040 80 202 2.6 5.2 0.00 0.00 0.00 83 1008.7
20260904134520 80 196 1.7 3.5 0.00 0.00 0.00 83 1008.7
20260904133020 78 188 1.7 3.5 0.00 0.00 0.00 84 1008.8
20260904131503 0 0.0 0.0 0.00 0.04 0.00 1008.9
20260904124555 0 0.0 0.0 0.00 0.04 0.00 1008.8
20260904123050 0 0.0 0.0 0.00 0.04 0.00 1008.6
20260904121546 0 0.0 0.0 0.00 0.04 0.00 1008.4
20260904120049 0 0.0 0.0 0.00 0.04 0.00 1008.4
20260904114537 0 0.0 0.0 0.00 0.04 0.00 1008.2
20260904113033 0 0.0 0.0 0.00 0.04 0.00 1008.1
20260904111510 0 0.0 0.0 0.00 0.04 0.00 1007.8
20260904110006 0 0.0 0.0 0.00 0.04 0.00 1007.7
20260904104545 0 0.0 0.0 0.00 0.04 0.00 1007.8
20260904103040 0 0.0 0.0 0.00 0.04 0.00 1007.7
20260904101518 0 0.0 0.0 0.00 0.04 0.00 1007.7
20260904100025 72 202 2.6 2.6 0.00 0.04 0.00 83 1007.5
20260904094559 73 204 1.7 2.6 0.00 0.04 0.00 85 1007.6
20260904093100 74 209 2.6 4.3 0.00 0.04 0.00 86 1007.4
20260904091535 74 216 2.6 5.2 0.00 0.05 0.00 86 1007.3
20260904090039 74 212 2.6 5.2 0.00 0.05 0.00 86 1007.2
20260904084514 75 203 3.5 6.1 0.00 0.05 0.00 87 1007.2
20260904083013 75 207 3.5 6.1 0.00 0.05 0.00 87 1007.2
20260904081554 76 204 3.5 6.1 0.00 0.05 0.00 87 1007.2
20260904080054 75 191 3.5 6.1 0.00 0.05 0.00 86 1007.2
20260904074537 75 200 3.5 5.2 0.00 0.05 0.00 86 1007.3
20260904073050 75 191 3.5 5.2 0.00 0.05 0.00 86 1007.4
20260904071516 76 167 3.5 6.1 0.00 0.05 0.00 86 1007.4
20260904070017 76 190 4.3 6.1 0.00 0.05 0.00 87 1007.4
20260904064558 76 185 4.3 6.1 0.00 0.05 0.00 87 1007.5
20260904063058 77 172 3.5 6.1 0.00 0.05 0.00 87 1007.4
20260904061537 77 166 4.3 7.0 0.00 0.05 0.00 87 1007.5
20260904060037 76 174 4.3 6.1 0.00 0.05 0.00 86 1007.4
20260904054518 77 186 4.3 7.8 0.00 0.05 0.00 87 1007.3
20260904053017 77 170 4.3 8.7 0.00 0.05 0.00 87 1007.2
20260904051600 78 169 5.2 7.8 0.00 0.05 0.00 87 1007.1
20260904050059 77 169 5.2 7.0 0.00 0.05 0.00 86 1007.2
20260904044542 77 169 4.3 7.0 0.00 0.05 0.00 81 1007.2
20260904043037 76 146 0.9 3.5 0.00 0.05 0.00 82 1007.3
20260904041518 77 160 2.6 5.2 0.00 0.05 0.00 83 1007.3
20260904040016 77 167 3.5 6.1 0.00 0.05 0.00 85 1007.2
20260904034602 78 153 4.3 7.8 0.00 0.05 0.00 86 1007.1
20260904033107 78 166 3.5 7.0 0.00 0.05 0.00 85 1007.3
20260904031538 77 136 3.5 5.2 0.00 0.05 0.00 85 1007.3
20260904030037 78 141 2.6 5.2 0.00 0.05 0.00 86 1007.2
20260904024518 78 143 0.9 3.5 0.00 0.05 0.00 86 1007.1
20260904023015 79 120 0.9 1.7 0.00 0.05 0.00 87 1007.1
20260904021616 79 142 0.9 1.7 0.00 0.05 0.00 87 1007.1
20260904020100 80 206 0.0 0.9 0.00 0.05 0.00 86 1006.8
20260904014636 80 170 0.9 4.3 0.00 0.05 0.00 86 1006.6
20260904013035 81 186 3.5 7.0 0.00 0.05 0.00 85 1006.3
20260904011532 81 161 5.2 8.7 0.00 0.05 0.00 85 1006.1
20260904010013 82 181 5.2 7.8 0.00 0.05 0.00 84 1006.1
20260904004513 82 169 4.3 7.0 0.00 0.05 0.00 83 1006.1
20260904003106 83 184 3.5 6.1 0.00 0.05 0.00 82 1006.1
20260904001554 84 179 3.5 6.1 0.00 0.05 0.00 81 1006.2
20260904000035 85 190 4.3 8.7 0.00 0.05 0.00 79 1006.0
20260903234535 85 186 4.3 9.6 0.00 0.05 0.00 77 1005.8
20260903233017 84 195 6.1 9.6 0.00 0.05 0.00 78 1005.8
20260903231515 83 198 3.5 7.8 0.00 0.05 0.00 79 1006.0
20260903230106 83 203 6.1 12.2 0.00 0.05 0.00 77 1005.8
20260903224558 84 207 7.0 14.8 0.00 0.05 0.00 75 1005.6
20260903223039 86 213 10.4 14.8 0.00 0.05 0.00 70 1005.2
20260903221539 87 234 9.6 18.2 0.00 0.05 0.00 69 1005.3
20260903220021 86 233 7.0 15.6 0.00 0.05 0.00 70 1005.5
20260903214535 87 223 9.6 14.8 0.00 0.05 0.00 71 1005.3
20260903213101 86 210 9.6 13.9 0.00 0.05 0.00 71 1005.5
20260903211600 86 213 8.7 16.5 0.00 0.05 0.00 69 1006.0
20260903210042 86 199 11.3 17.4 0.00 0.05 0.00 70 1005.7
20260903204541 87 226 8.7 16.5 0.00 0.05 0.00 70 1005.5
20260903203022 86 205 10.4 16.5 0.00 0.05 0.00 68 1005.9
20260903201529 86 220 7.8 20.0 0.00 0.05 0.00 70 1005.9
20260903200003 86 192 13.0 21.7 0.00 0.05 0.00 70 1005.4
20260903194604 85 180 13.9 0.0 0.00 0.00 0.00 71 1005.6
20260903193037 85 208 11.3 19.1 0.00 0.05 0.00 70 1006.0
20260903191536 84 200 12.2 18.2 0.00 0.05 0.00 71 1006.2
20260903190003 84 177 13.0 24.3 0.00 0.05 0.00 70 1006.2
20260903184503 84 172 13.0 23.5 0.00 0.05 0.00 69 1006.1
20260903183043 84 208 17.4 23.5 0.00 0.05 0.00 70 1006.2
20260903181546 83 178 12.2 21.7 0.00 0.05 0.00 72 1006.5
20260903180043 82 169 8.7 20.0 0.00 0.05 0.00 76 1006.5